Location: Unspecified
(42.9300°N, 71.1866°W)
Time: 17:50:29
(UTC-04:00)

CZ-3 Stage 3 - Visible Passes

Search period start: 28 April 2016 00:00
Search period end: 08 May 2016 00:00
Orbit: 399 x 34805 km, 30.3° (Epoch: 28 April)

Date Brightness Start Highest point End Pass type
(mag) Time Alt. Az. Time Alt. Az. Time Alt. Az.
28 Apr 8.4 19:10:11 10° SSE 21:01:45 15° SSE 21:21:41 14° SE visible
30 Apr 4.2 04:46:12 11° WSW 04:52:53 22° SSW 04:55:55 10° SE visible
30 Apr 5.9 23:35:11 10° SSW 01:18:06 17° SE 01:20:03 10° ESE visible
01 May 8.2 18:50:53 10° SSE 20:54:45 16° SSE 21:17:35 14° SE visible
03 May 4.1 04:38:02 11° WSW 04:44:30 22° SSW 04:47:35 10° SE visible
03 May 5.9 23:15:30 10° SSW 01:09:55 17° SE 01:11:51 10° ESE visible
04 May 8.0 18:32:11 10° SSE 20:47:37 17° SSE 21:13:36 14° SE visible
06 May 4.1 04:29:49 12° WSW 04:36:07 23° SSW 04:39:13 10° SE visible
06 May 5.8 22:52:22 10° SSW 01:01:41 18° SE 01:03:38 10° ESE visible
07 May 7.7 18:13:59 10° SSE 20:40:22 18° SSE 21:09:42 14° SE visible
